Trenton, NJ

12:57 PM EST on January 19, 2018 (GMT -0500)
Trenton Mercer

Weather History for KTTN - January, 2012

Change the Weather History Date:

Monday, January 30, 2012

  Actual Average Record
Temperature  
Mean Temperature 39 °F 32 °F  
Max Temperature 42 °F 39 °F 70 °F (1947)
Min Temperature 35 °F 24 °F -13 °F (1873)
Degree Days  
Heating Degree Days 26 33  
Month to date heating degree days 802 1017  
Since 1 July heating degree days 2210 2912  
Cooling Degree Days 0 0  
Month to date cooling degree days 0 0  
Year to date cooling degree days 0 0  
Moisture  
Dew Point 16 °F    
Average Humidity 47    
Maximum Humidity 64    
Minimum Humidity 29    
Precipitation  
Precipitation 0.00 in 0.09 in 1.10 in (1939)
Month to date precipitation 3.49 3.06  
Year to date precipitation 3.49 3.06  
Sea Level Pressure  
Sea Level Pressure 30.23 in    
Wind  
Wind Speed 9 mph (WNW)    
Max Wind Speed 25 mph    
Max Gust Speed 36 mph    
Visibility 10 miles    
Events      
T = Trace of Precipitation, MM = Missing Value Source: NWS Daily Summary

Daily Weather History Graph

Daily Weather History Graph

Search for Another Location

Airport or City:

Trip Planner

Search our weather history database for the weather conditions in past years. The results will help you decide how hot, cold, wet, or windy it might be!

Date:

Astronomy

Jan. 30, 2012 Rise Set
Actual Time 7:10 AM EST 5:14 PM EST
Civil Twilight 6:41 AM EST 5:43 PM EST
Nautical Twilight 6:09 AM EST 6:16 PM EST
Astronomical Twilight 5:37 AM EST 6:48 PM EST
Moon 10:30 AM EST (1/30) No Moon Set
Length of Visible Light 11h 02m
Length of Day
10h 04m
Waxing Crescent, 46% of the Moon is Illuminated
Jan 30
Waxing Crescent
Jan 30
First Quarter
Feb 7
Full
Feb 14
Last Quarter
Feb 21
New

Hourly Weather History & Observations

Time (EST) Temp. Windchill Dew Point Humidity Pressure Visibility Wind Dir Wind Speed Gust Speed Precip Events Conditions
12:53 AM 37.9 °F 33.5 °F 27.0 °F 65% 30.05 in 10.0 mi West 5.8 mph - N/A   Overcast
1:53 AM 39.0 °F 31.0 °F 23.0 °F 53% 30.07 in 10.0 mi WNW 13.8 mph 20.7 mph N/A   Partly Cloudy
2:53 AM 37.9 °F 30.9 °F 19.9 °F 48% 30.09 in 10.0 mi WNW 10.4 mph - N/A   Clear
3:53 AM 37.0 °F 28.9 °F 19.0 °F 48% 30.11 in 10.0 mi WNW 12.7 mph - N/A   Clear
4:53 AM 36.0 °F 28.5 °F 19.0 °F 50% 30.12 in 10.0 mi WNW 10.4 mph 16.1 mph N/A   Clear
5:53 AM 36.0 °F 28.0 °F 19.0 °F 50% 30.15 in 10.0 mi NW 11.5 mph - N/A   Clear
6:53 AM 35.1 °F 27.9 °F 18.0 °F 50% 30.19 in 10.0 mi WNW 9.2 mph - N/A   Clear
7:53 AM 36.0 °F 29.6 °F 14.0 °F 41% 30.23 in 10.0 mi NW 8.1 mph - N/A   Clear
8:53 AM 37.0 °F 31.0 °F 14.0 °F 39% 30.25 in 10.0 mi NW 8.1 mph - N/A   Clear
9:53 AM 37.9 °F 30.5 °F 12.9 °F 36% 30.28 in 10.0 mi NW 11.5 mph - N/A   Clear
10:53 AM 39.0 °F 31.0 °F 15.1 °F 38% 30.31 in 10.0 mi WNW 13.8 mph 20.7 mph N/A   Overcast
11:53 AM 37.9 °F 30.0 °F 12.9 °F 36% 30.30 in 10.0 mi WNW 12.7 mph 20.7 mph N/A   Mostly Cloudy
12:53 PM 39.0 °F 32.8 °F 12.9 °F 34% 30.27 in 10.0 mi NW 9.2 mph 23.0 mph N/A   Partly Cloudy
1:53 PM 41.0 °F 34.3 °F 12.9 °F 32% 30.25 in 10.0 mi NNW 11.5 mph 18.4 mph N/A   Clear
2:53 PM 41.0 °F 33.5 °F 12.0 °F 31% 30.25 in 10.0 mi West 13.8 mph 17.3 mph N/A   Clear
3:53 PM 42.1 °F 36.6 °F 12.9 °F 31% 30.26 in 10.0 mi WNW 9.2 mph - N/A   Clear
4:53 PM 39.9 °F 35.8 °F 12.0 °F 32% 30.27 in 10.0 mi WNW 5.8 mph - N/A   Clear
5:53 PM 39.0 °F 34.8 °F 10.9 °F 32% 30.29 in 10.0 mi WNW 5.8 mph - N/A   Mostly Cloudy
6:53 PM 37.9 °F 35.5 °F 10.9 °F 33% 30.30 in 10.0 mi West 3.5 mph - N/A   Scattered Clouds
7:53 PM 37.4 °F - 14.0 °F 38% 30.31 in 10.0 mi Calm Calm - N/A   Overcast
8:53 PM 36.0 °F 33.3 °F 16.0 °F 44% 30.30 in 10.0 mi SW 3.5 mph - N/A   Overcast
9:53 PM 37.0 °F 31.6 °F 16.0 °F 42% 30.29 in 10.0 mi SW 6.9 mph - N/A   Clear
10:53 PM 36.0 °F 31.1 °F 16.0 °F 44% 30.26 in 10.0 mi South 5.8 mph - N/A   Clear
11:53 PM 35.1 °F 31.0 °F 17.1 °F 48% 30.24 in 10.0 mi South 4.6 mph - N/A   Clear